Xiamen Gaoqi International Airport
ZSAM : now visible

Airfield :











YOU CAN JOIN US ON...

 
LOGIN :

Register | Disclaimer

   EN    FR    IT 

 









Legend :    VFR   Marginal VFR   IFR   Intensive IFR   Very Intensive IFR
Visi :
Ceiling :
>= 8 km
>= 3000ft
5 to 8 km
1000 to 3000 ft
1500m to 5 km
500 to 1000 ft
800 to 1500m
200 to 500 ft
< 800m
< 200 ft
Symbols :   Thunderstorms  Fog  Heavy snow  Heavy precipitations  Wind > 20 kt







- Airport Elevation : 59 ft
- IATA code : XMN


ZSAM - Xiamen Gaoqi International

CURRENT METAR :
  • 241700Z VRB01MPS 9999 FEW021 OVC040 24/22 Q1012 NOSIG

EXPIRED METARs :
  • 241600Z VRB01MPS 9999 -RA FEW021 OVC040 24/22 Q1012 NOSIG
  • 241500Z 17002MPS 120V210 9999 OVC040 24/22 Q1013 NOSIG

TAF TAF ZSAM
Valid from the 24 at 18:00 until the 25 at 18:00 UTC


241505Z 2418/2518 12004MPS 5000 BR BKN033 TX27/2506Z TN22/2421Z
TEMPO 2420/2502 4000 SHRA BKN010 FEW026CB BKN030
TEMPO 2506/2512 SHRA BKN010 FEW020CB BKN023
ZSHA FIR / Asia



MET'MAP, your aeronautical weather chart ! - Copyright ORBIFLY December 2007 - Disclaimer

ORBIFLY MET'MAP TEAM :

Programming & Development : Alexandra Zaïnal
Concept & Development : Baudouin d'Aumeries
Co-Development & Prog : Marc-Olivier Méhu
Technical & hardware support : Manuel Goepfert

Contact : metmap@orbifly.com




SOURCES & CREDITS :

   NOAA       Earth
Advisory